Location: Amsterdam
(30.7274°N, 84.4357°W)
Time: 06:11:44
(UTC+00:00)

Explorer 11/Cluster Stage 4 - Pass Details

Date: 20 February 2026
Orbit: 463 x 1175 km, 28.8° (Epoch: 13 March)

Event Time Altitude Azimuth Distance (km) Brightness Sun altitude
Rises 15:29:23 0° 218° (SW) 3,491 10.0 36.3°
Reaches altitude 10° 15:32:53 10° 202° (SSW) 2,399 9.5 36.8°
Maximum altitude 15:36:45 19° 159° (SSE) 1,695 9.7 37.4°
Drops below altitude 10° 15:40:10 10° 114° (ESE) 2,069 9.8 37.9°
Sets 15:42:54 0° 95° (E) 2,855 10.0 38.3°
